Location: ???????
(55.4362°N, 38.1183°E)
Time: 11:43:57
(UTC+00:00)

deb Delta 139 - Pass Details

Date: 04 February 2022
Orbit: 790 x 1093 km, 98.7° (Epoch: 23 May)

Event Time Altitude Azimuth Distance (km) Brightness Sun altitude
Rises 01:48:01 0° 24° (NNE) 3,771 ? -29.3°
Reaches altitude 10° 01:51:46 10° 46° (NE) 2,866 ? -28.8°
Maximum altitude 01:55:26 15° 81° (E) 2,520 ? -28.3°
Drops below altitude 10° 01:59:09 10° 115° (ESE) 2,926 ? -27.8°
Sets 02:03:02 0° 137° (SE) 3,894 ? -27.2°
